Weather History for Dickinson, ND

Change the Weather History Date:

Saturday, June 9, 2012

  Actual Average Record
Temperature  
Mean Temperature 65 °F 60 °F  
Max Temperature 78 °F 73 °F 95 °F (1961)
Min Temperature 52 °F 48 °F 30 °F (1919)
Degree Days  
Heating Degree Days 0 6  
Month to date heating degree days 16 61  
Since 1 June heating degree days 16 61  
Since 1 July heating degree days 7077 8501  
Cooling Degree Days 0 1  
Month to date cooling degree days 20 9  
Year to date cooling degree days 33 19  
Since 1 June cooling degree days 20 9  
Growing Degree Days 14 (Base 50)    
Moisture  
Dew Point 56 °F    
Average Humidity 68    
Maximum Humidity 97    
Minimum Humidity 38    
Precipitation  
Precipitation 0.16 in 0.11 in 1.16 in (1977)
Month to date precipitation 1.32 0.93  
Year to date precipitation 5.09 6.04  
Sea Level Pressure  
Sea Level Pressure 29.50 in    
Wind  
Wind Speed 14 mph (NW)    
Max Wind Speed 30 mph    
Max Gust Speed 36 mph    
Visibility 10 miles    
Events Rain , Thunderstorm    
T = Trace of Precipitation, MM = Missing Value Source: NWS Daily Summary

Daily Weather History Graph

Daily Weather History Graph

Search for Another Location

Airport:

Trip Planner

Search our weather history database for the weather conditions in past years. The results will help you decide how hot, cold, wet, or windy it might be!

Date:

Astronomy

Jun. 09, 2012 Rise Set
Actual Time 4:57 AM MDT 8:44 PM MDT
Civil Twilight 4:18 AM MDT 9:23 PM MDT
Nautical Twilight 3:24 AM MDT 10:16 PM MDT
Astronomical Twilight 2:09 AM MDT 11:33 PM MDT
Moon No Moon Rise 11:03 AM MDT (6/9)
Length of Visible Light 17h 05m
Length of Day
15h 47m
Waning Gibbous, 67% of the Moon is Illuminated
Jun 9
Waning Gibbous
Jun 11
Last Quarter
Jun 19
New
Jun 26
First Quarter
Jul 3
Full

Hourly Weather History & Observations

Time (MDT) Temp. Dew Point Humidity Pressure Visibility Wind Dir Wind Speed Gust Speed Precip Events Conditions
12:56 AM 64.0 °F 61.0 °F 90% 29.44 in 10.0 mi East 16.1 mph - N/A   Clear
1:56 AM 63.0 °F 60.1 °F 90% 29.42 in 10.0 mi East 16.1 mph - N/A   Clear
2:56 AM 62.1 °F 60.1 °F 93% 29.38 in 10.0 mi East 11.5 mph - N/A   Clear
4:56 AM 62.1 °F 60.1 °F 93% 29.37 in 10.0 mi NW 6.9 mph - N/A   Clear
5:51 AM 60.8 °F 60.8 °F 100% 29.45 in 7.0 mi North 10.4 mph - N/A   Mostly Cloudy
5:56 AM 61.0 °F 59.0 °F 93% 29.41 in 8.0 mi North 8.1 mph - N/A   Mostly Cloudy
6:56 AM 62.1 °F 57.9 °F 86% 29.42 in 10.0 mi NNE 11.5 mph - N/A   Overcast
7:06 AM 62.6 °F 57.2 °F 82% 29.47 in 10.0 mi North 13.8 mph - N/A   Overcast
7:56 AM 63.0 °F 57.9 °F 84% 29.42 in 10.0 mi NNE 12.7 mph - N/A   Overcast
8:56 AM 64.0 °F 59.0 °F 84% 29.44 in 10.0 mi North 5.8 mph - N/A   Overcast
9:10 AM 64.4 °F 59.0 °F 83% 29.48 in 10.0 mi North 5.8 mph - N/A   Overcast
9:56 AM 64.0 °F 59.0 °F 84% 29.44 in 10.0 mi WNW 9.2 mph - N/A   Overcast
10:21 AM 64.4 °F 59.0 °F 83% 29.48 in 10.0 mi West 13.8 mph - N/A   Overcast
10:51 AM 64.4 °F 57.2 °F 77% 29.49 in 10.0 mi West 17.3 mph - N/A   Overcast
10:56 AM 64.9 °F 57.9 °F 78% 29.46 in 10.0 mi West 17.3 mph - N/A   Overcast
11:32 AM 69.8 °F 59.0 °F 68% 29.49 in 10.0 mi West 19.6 mph - N/A   Overcast
11:40 AM 69.8 °F 59.0 °F 68% 29.49 in 10.0 mi West 16.1 mph - N/A   Overcast
11:56 AM 70.0 °F 60.1 °F 71% 29.44 in 10.0 mi West 19.6 mph 24.2 mph N/A   Mostly Cloudy
12:25 PM 71.6 °F 60.8 °F 69% 29.48 in 10.0 mi West 20.7 mph 26.5 mph N/A   Mostly Cloudy
1:12 PM 73.4 °F 59.0 °F 61% 29.49 in 10.0 mi WNW 20.7 mph 25.3 mph N/A   Scattered Clouds
1:56 PM 75.9 °F 59.0 °F 56% 29.45 in 10.0 mi NW 20.7 mph 27.6 mph N/A   Mostly Cloudy
2:56 PM 78.1 °F 55.9 °F 46% 29.45 in 10.0 mi NW 21.9 mph 28.8 mph N/A   Scattered Clouds
3:56 PM 75.9 °F 53.1 °F 45% 29.48 in 10.0 mi WNW 18.4 mph 23.0 mph N/A   Mostly Cloudy
4:56 PM 73.9 °F 52.0 °F 46% 29.52 in 10.0 mi WNW 25.3 mph 35.7 mph N/A   Mostly Cloudy
5:56 PM 71.1 °F 45.0 °F 39% 29.54 in 10.0 mi WNW 23.0 mph 32.2 mph N/A   Clear
6:56 PM 66.9 °F 45.0 °F 45% 29.56 in 10.0 mi WNW 16.1 mph 27.6 mph N/A   Mostly Cloudy
7:56 PM 64.0 °F 43.0 °F 46% 29.59 in 10.0 mi NW 15.0 mph - N/A   Mostly Cloudy
8:56 PM 60.1 °F 48.0 °F 64% 29.67 in 10.0 mi West 20.7 mph 25.3 mph N/A   Overcast
9:56 PM 55.9 °F 46.9 °F 72% 29.66 in 10.0 mi NW 15.0 mph - 0.00 in   Overcast
11:39 PM 53.6 °F 50.0 °F 88% 29.69 in 10.0 mi WNW 11.5 mph - 0.00 in Rain , Thunderstorm Light Rain
11:54 PM 51.8 °F 50.0 °F 94% 29.70 in 4.0 mi WSW 5.8 mph - 0.07 in Rain Light Rain
11:56 PM 52.0 °F 50.0 °F 93% 29.68 in 6.0 mi WSW 4.6 mph - 0.07 in Rain Light Rain